This is the latest recevied weather packets stored in our database for station/object N6GPM. If no packets are shown the sender has not sent any weather packets the latest 10 day(s).
| Time | Temp. | Humidity | Pressure | Rain* | Wind** | Luminosity | Snow |
|---|---|---|---|---|---|---|---|
| 1787753187 | 25.56° C | 52% | 1017.4 hPa | 0 mm | - | 68 W/m² | - |
| 1787752882 | 25.56° C | 52% | 1017.2 hPa | 0 mm | - | 56 W/m² | - |
| 1787752581 | 25.56° C | 53% | 1017 hPa | 0 mm | - | 48 W/m² | - |
| 1787752277 | 25.56° C | 52% | 1017.3 hPa | 0 mm | - | 40 W/m² | - |
| 1787751975 | 25.56° C | 54% | 1017.2 hPa | 0 mm | - | 33 W/m² | - |
| 1787751670 | 24.44° C | 53% | 1016.7 hPa | 0 mm | - | 26 W/m² | - |
| 1787751366 | 24.44° C | 53% | 1016.8 hPa | 0 mm | - | 20 W/m² | - |
| 1787751061 | 24.44° C | 53% | 1016.6 hPa | 0 mm | - | 15 W/m² | - |
| 1787750756 | 24.44° C | 53% | 1016.7 hPa | 0 mm | - | 10 W/m² | - |
| 1787750456 | 24.44° C | 53% | 1016.7 hPa | 0 mm | - | 6 W/m² | - |
| 1787750151 | 24.44° C | 54% | 1016.8 hPa | 0 mm | - | 3 W/m² | - |
| 1787749847 | 24.44° C | 54% | 1016.6 hPa | 0 mm | - | 1 W/m² | - |
| 1787749543 | 24.44° C | 54% | 1016.6 hPa | 0 mm | - | 1 W/m² | - |
| 1787749238 | 24.44° C | 54% | 1016.7 hPa | 0 mm | - | 0 W/m² | - |
| 1787748933 | 24.44° C | 54% | 1016.5 hPa | 0 mm | - | 0 W/m² | - |
| 1787748627 | 24.44° C | 53% | 1016.6 hPa | 0 mm | - | 0 W/m² | - |
| 1787748323 | 25° C | 52% | 1016.6 hPa | 0 mm | - | 0 W/m² | - |
| 1787748019 | 25° C | 52% | 1016.7 hPa | 0 mm | - | 0 W/m² | - |
| 1787747718 | 25° C | 52% | 1016.6 hPa | 0 mm | - | 0 W/m² | - |
| 1787747413 | 25° C | 53% | 1016.6 hPa | 0 mm | - | 0 W/m² | - |
| 1787747103 | 25° C | 52% | 1016.7 hPa | 0 mm | - | 0 W/m² | - |
| 1787746799 | 25° C | 51% | 1016.5 hPa | 0 mm | - | 0 W/m² | - |
| 1787746497 | 25° C | 52% | 1016.5 hPa | 0 mm | - | 0 W/m² | - |
| 1787746196 | 25° C | 52% | 1016.8 hPa | 0 mm | - | 0 W/m² | - |
| 1787745891 | 25° C | 52% | 1016.8 hPa | 0 mm | - | 0 W/m² | - |
* Rain latest hour (hover to see other rain measurements)
** Current wind speed in m/s (hover to see current wind gust speed)